Mardi 25 janvier 2022   -   semaine 04                    on fête: Paul                    soleil  (+3 mn) lever du soleil 08:17:00 coucher du soleil 17:40:00                    lune Lune gibbeuse décroissante
Sélection

Sélection d'un SYNOP

   Synop:       

  Période à consulter:

Actuelle
Archive     

Relevé

Dernier relevé du SYNOP pour la période choisie

Conditions météo à la station de Vichy/Charmeil (4610N 00324E)    altitude 251m

Date du relevé25/01/2022 à 08:00
Base des nuagesplus de 2500m
Visibilité9km
Vent4 km/h SSO
Température-5.1 C
Humidité100.0 %
Point de rosée-5.1 C
Pression absolue1002.3 hPa
Pression relative1034.7 hPa
Variation pression0.2 hPa en baisse ou stationnaire, puis en hausse plus rapide
Neige au sol000 cm (relevé du 25/01/2022 04:00)
Temps présentAucune formation de nuages observée ou observable.

24h

Historique de la période choisie

Certaines stations ne diffusent pas en continu, d'où l'absence possible de données à certaines heures. Le tableau ci-dessous récapitule l'historique des relevés de la station de Vichy/Charmeil.

Date - Heure Base des nuages Visibilité Nébulosité Vent - Secteur Température Humidité Point rosée Pression / Géopotentiel Précipitations Temps
25/01 08:00 plus de 2500m 9km 4 km/h SSO -5.1 C 100.0 % -5.1 C 1034.7 hPa
25/01 07:00 plus de 2500m 17km 4 km/h SSO -3.7 C 97.0 % -4.1 C 1034.3 hPa 0 mm/12h
25/01 06:00 plus de 2500m 16km 4 km/h S -3.5 C 100.0 % -3.5 C 1034.2 hPa
25/01 05:00 plus de 2500m 7km 2 km/h SO -5.0 C 100.0 % -5.0 C 1034.5 hPa
25/01 04:00 plus de 2500m 7km 4 km/h SO -4.8 C 100.0 % -4.8 C 1034.3 hPa
25/01 03:00 plus de 2500m 7km 2 km/h SO -4.5 C 100.0 % -4.5 C 1034.2 hPa
25/01 02:00 plus de 2500m 6km 2 km/h SSO -4.2 C 100.0 % -4.2 C 1033.9 hPa
25/01 01:00 plus de 2500m 5000m 2 km/h SO -3.8 C 100.0 % -3.8 C 1033.9 hPa 0 mm/6h
25/01 00:00 plus de 2500m 5000m 0 km/h N -3.2 C 100.0 % -3.2 C 1033.5 hPa
24/01 23:00 plus de 2500m 6km 6 km/h SSO -2.3 C 100.0 % -2.3 C 1033.1 hPa
24/01 22:00 plus de 2500m 4200m 6 km/h SSO -2.0 C 100.0 % -2.0 C 1033.0 hPa
24/01 21:00 plus de 2500m 4300m 6 km/h SSO -2.0 C 100.0 % -2.0 C 1032.9 hPa
24/01 20:00 plus de 2500m 6km 0 km/h N -1.3 C 100.0 % -1.3 C 1032.8 hPa
24/01 19:00 plus de 2500m 8km 2 km/h OSO 0.0 C 95.0 % -0.7 C 1032.2 hPa 0 mm/12h
24/01 18:00 plus de 2500m 13km 2 km/h NO 2.9 C 80.0 % -0.2 C 1031.6 hPa
24/01 17:00 plus de 2500m 19km 6 km/h N 6.4 C 72.9 % 1.9 C 1030.6 hPa
24/01 16:00 plus de 2500m 19km 7 km/h N 7.5 C 71.1 % 2.6 C 1030.2 hPa
24/01 15:00 plus de 2500m 19km 7 km/h N 7.0 C 70.0 % 1.9 C 1030.1 hPa
24/01 14:00 plus de 2500m 19km 6 km/h N 6.0 C 72.8 % 1.5 C 1030.5 hPa
24/01 13:00 plus de 2500m 19km 6 km/h N 3.9 C 79.0 % 0.6 C 1031.1 hPa 0 mm/6h
24/01 12:00 plus de 2500m 9km 6 km/h NNE 0.4 C 97.8 % 0.1 C 1032.1 hPa
24/01 11:00 50 à 100m 7km 6/8 2 km/h SE -1.7 C 100.0 % -1.7 C 1032.4 hPa
24/01 10:00 50 à 100m 3000m 8/8 6 km/h S -2.9 C 100.0 % -2.9 C 1032.3 hPa
24/01 09:00 50 à 100m 3400m 8/8 7 km/h S -2.6 C 100.0 % -2.6 C 1032.0 hPa
24/01 08:00 50 à 100m 700m 8/8 9 km/h SSE -2.5 C 100.0 % -2.5 C 1031.7 hPa

Source: ogimet